Regional Weather Roundup
Issued by NWS

Home | Current Version | Previous Version | Graphics & Text | Print | Product List | Glossary On
Versions: 1 2 3 4 5 6 7 8 9 10 11 12 13 14 15 16 17 18 19 20 21 22 23 24 25 26 27 28 29 30 31 32 33 34 35 36 37 38 39 40 41 42 43 44 45 46 47 48 49 50
922
ASUS43 KFSD 300802
RWRSD

WEATHER ROUNDUP FOR SOUTH DAKOTA
NATIONAL WEATHER SERVICE SIOUX FALLS SD
300 AM CDT MON MAY 30 2016

NOTE: "FAIR" INDICATES FEW OR NO CLOUDS BELOW 12,000 FEET WITH NO
SIGNIFICANT WEATHER AND/OR OBSTRUCTIONS TO VISIBILITY.


SDZ001>005-009-010-012>017-300900-
NORTHWEST AND NORTH CENTRAL SOUTH DAKOTA

CITY           SKY/WX    TMP DP  RH WIND       PRES   REMARKS
BUFFALO          N/A     53  47  79 SE9       29.87F
FAITH            N/A     57  49  74 SE13      29.93F
MOBRIDGE       CLEAR     57  53  86 SE7       29.91F
$$

SDZ012>016-024>037-041>051-057-063-072>074-300900-
SOUTHWEST AND SOUTH CENTRAL SOUTH DAKOTA

CITY           SKY/WX    TMP DP  RH WIND       PRES   REMARKS
RAPID CTY ARPT CLEAR     50  49  96 W3        29.94F
PIERRE         CLOUDY    62  58  86 SE12      29.92F
CUSTER         CLEAR     46  40  79 NW3       30.05F
ELLSWORTH AFB  CLEAR     53  52  97 W7        29.93F
PHILIP         CLEAR     57  54  89 NE8       29.90F
PINE RIDGE     CLOUDY    62  52  69 S20G30    29.96S
WINNER         FAIR      62  53  72 NE9       29.95R
$$

SDZ004>011-016>023-039-040-300900-
NORTHEAST SOUTH DAKOTA

CITY           SKY/WX    TMP DP  RH WIND       PRES   REMARKS
ABERDEEN       CLEAR     52  48  86 SE6       29.96S
WATERTOWN      CLOUDY    58  50  75 S6        29.99S
BROOKINGS      CLOUDY    58  52  80 SE5       29.99F
SISSETON         N/A     54  46  74 S3        29.95S
$$

SDZ017-020-022-023-036>040-048>070-300900-
SOUTHEAST SOUTH DAKOTA

CITY           SKY/WX    TMP DP  RH WIND       PRES   REMARKS
SIOUX FALLS    CLOUDY    59  55  87 W5        30.01R
HURON          CLOUDY    62  51  67 S8        29.97R
MITCHELL       LGT RAIN  66  57  72 W9        30.02R
YANKTON        CLOUDY    63  55  77 N7        30.03R
$$

ABBREVIATIONS USED IN REMARKS
   TC - TEMPERATURE IN CELSIUS
  WCI - WIND CHILL INDEX
   HX - HEAT INDEX
  VSB - VISIBILITY





USA.gov is the U.S. government's official web portal to all federal, state and local government web resources and services.